Location: Rotheul
(50.2849°N, 11.2349°E)
Time: 05:28:01
(UTC+01:00)

ISS - Pass Details

Date: 14 November 2018
Orbit: 402 x 408 km, 51.6° (Epoch: 17 November)

Event Time Altitude Azimuth Distance (km) Brightness Sun altitude
Exits shadow 05:44:59 13° 210° (SSW) 1,303 -1.5 -16.2°
Drops below altitude 10° 05:46:02 10° 192° (SSW) 1,457 -1.0 -16.0°
Sets 05:48:55 0° 164° (SSE) 2,313 0.4 -15.6°
